GW1596 Weather Reports


Display with metric or nautical units.
time (UTC)temp
F
wind
direction
speed
MPH
gust
MPH
rain 1hr
in
rain 24hr
in
rain mn
in
humidity
%
barometer
mb
20260505075111 64 254 7.0 8.0 0.00 0.00 0.00 60 1011.5
20260505073939 64 227 2.0 8.0 0.00 0.00 0.00 59 1011.5
20260505073351 64 239 4.0 4.0 0.00 0.00 0.00 60 1011.1
20260505072150 63 237 3.0 6.0 0.00 0.00 0.00 62 1011.5
20260505070926 62 233 4.0 7.0 0.00 0.00 0.00 64 1011.1
20260505070310 62 243 4.0 4.0 0.00 0.00 0.00 64 1011.5
20260505065740 62 227 3.0 3.0 0.00 0.00 0.00 65 1011.5
20260505064531 62 227 2.0 3.0 0.00 0.00 0.00 66 1011.5
20260505063912 61 231 2.0 4.0 0.00 0.00 0.00 67 1011.5
20260505063352 61 225 2.0 3.0 0.00 0.00 0.00 68 1011.8
20260505062752 61 228 2.0 4.0 0.00 0.00 0.00 69 1011.8
20260505062120 60 240 4.0 4.0 0.00 0.00 0.00 70 1011.8
20260505060932 57 219 2.0 3.0 0.00 0.00 0.00 81 1011.5
20260505060347 56 198 0.0 3.0 0.00 0.00 0.00 86 1011.8
20260505055730 55 117 1.0 2.0 0.00 0.00 0.00 89 1011.8
20260505055120 54 163 1.0 2.0 0.00 0.00 0.00 93 1011.8
20260505054545 54 153 0.0 1.0 0.00 0.00 0.00 94 1011.8
20260505053930 53 112 0.0 1.0 0.00 0.00 0.00 95 1011.8
20260505053309 53 112 0.0 0.0 0.00 0.00 0.00 96 1011.8
20260505051537 53 112 0.0 0.0 0.00 0.00 0.00 96 1011.8
20260505050326 53 112 0.0 0.0 0.00 0.00 0.00 96 1011.8
20260505041526 53 112 0.0 0.0 0.00 0.00 0.00 95 1011.5
20260505040919 53 112 0.0 0.0 0.00 0.00 0.00 95 1011.5
20260505035138 53 112 0.0 0.0 0.00 0.00 0.00 94 1011.5
20260505034556 53 112 0.0 0.0 0.00 0.00 0.00 94 1011.5
20260505033913 53 112 0.0 0.0 0.00 0.00 0.00 94 1011.1
20260505033320 53 112 1.0 1.0 0.00 0.00 0.00 93 1011.1
20260505032719 53 112 1.0 1.0 0.00 0.00 0.00 93 1011.1
20260505032128 54 112 1.0 1.0 0.00 0.00 0.00 92 1011.1
20260505031514 54 112 0.0 0.0 0.00 0.00 0.00 91 1011.1
20260505030941 54 112 0.0 1.0 0.00 0.00 0.00 90 1011.5
20260505030344 54 111 1.0 1.0 0.00 0.00 0.00 91 1011.1
20260505025743 54 112 1.0 1.0 0.00 0.00 0.00 91 1011.1
20260505025129 54 112 0.0 0.0 0.00 0.00 0.00 91 1011.1
20260505024538 54 112 0.0 0.0 0.00 0.00 0.00 90 1011.1
20260505022123 55 112 0.0 0.0 0.00 0.00 0.00 89 1011.1
20260505021512 56 112 0.0 1.0 0.00 0.00 0.00 88 1011.1
20260505020926 56 112 0.0 0.0 0.00 0.00 0.00 86 1011.1
20260505020317 56 112 1.0 2.0 0.00 0.00 0.00 86 1011.1
20260505015154 57 112 1.0 2.0 0.00 0.00 0.00 84 1011.1
20260505014530 57 112 0.0 0.0 0.00 0.00 0.00 84 1011.1
20260505013918 58 111 2.0 2.0 0.00 0.00 0.00 82 1011.1
20260505013318 58 112 0.0 0.0 0.00 0.00 0.00 82 1011.1
20260505012711 58 112 0.0 0.0 0.00 0.00 0.00 81 1010.8
20260505012147 58 112 0.0 0.0 0.00 0.00 0.00 81 1010.8
20260505011536 59 112 0.0 0.0 0.00 0.00 0.00 80 1010.8
20260505010914 59 112 0.0 0.0 0.00 0.00 0.00 78 1011.1
20260505010331 60 112 0.0 0.0 0.00 0.00 0.00 79 1010.8
20260505005751 60 112 0.0 0.0 0.00 0.00 0.00 77 1011.1
20260505005121 61 112 0.0 0.0 0.00 0.00 0.00 76 1010.8
20260505004534 61 112 0.0 0.0 0.00 0.00 0.00 75 1010.4
20260505003929 62 112 0.0 0.0 0.00 0.00 0.00 73 1010.8
20260505003354 63 112 0.0 0.0 0.00 0.00 0.00 71 1010.8
20260505002111 65 118 1.0 1.0 0.00 0.00 0.00 65 1011.1
20260505001513 66 328 1.0 1.0 0.00 0.00 0.00 63 1011.1
20260505000916 67 159 0.0 0.0 0.00 0.00 0.00 59 1011.1
20260505000318 68 159 0.0 0.0 0.00 0.00 0.00 57 1011.1
20260504235715 69 194 0.0 0.0 0.00 0.00 0.00 54 1011.1
20260504234528 70 203 2.0 2.0 0.00 0.00 0.00 51 1011.1
20260504233933 70 193 1.0 4.0 0.00 0.00 0.00 51 1011.1
20260504233341 71 221 2.0 3.0 0.00 0.00 0.00 53 1011.1
20260504232715 71 242 4.0 8.0 0.00 0.00 0.00 51 1011.1
20260504232153 72 225 2.0 3.0 0.00 0.00 0.00 51 1011.1
20260504231519 72 243 4.0 8.0 0.00 0.00 0.00 48 1011.1
20260504230952 72 191 5.0 9.0 0.00 0.00 0.00 48 1011.5
20260504225715 72 235 4.0 6.0 0.00 0.00 0.00 49 1011.5
20260504225147 72 213 6.0 8.0 0.00 0.00 0.00 49 1011.5
20260504224511 73 242 6.0 10.0 0.00 0.00 0.00 49 1011.5
20260504223935 73 255 7.0 8.0 0.00 0.00 0.00 47 1011.8
20260504223316 72 260 6.0 8.0 0.00 0.00 0.00 46 1011.8
20260504222753 72 245 7.0 9.0 0.00 0.00 0.00 48 1011.8
20260504222112 71 243 6.0 8.0 0.00 0.00 0.00 48 1011.8
20260504221522 72 241 8.0 10.0 0.00 0.00 0.00 48 1011.8
20260504220927 71 263 10.0 17.0 0.00 0.00 0.00 47 1012.1
20260504220316 71 250 5.0 9.0 0.00 0.00 0.00 48 1011.5
20260504215123 71 257 7.0 10.0 0.00 0.00 0.00 47 1011.8
20260504214552 72 250 8.0 11.0 0.00 0.00 0.00 46 1011.8
20260504213951 72 246 5.0 11.0 0.00 0.00 0.00 46 1011.8
20260504211528 71 251 7.0 10.0 0.00 0.00 0.00 46 1011.8
20260504210950 71 257 6.0 10.0 0.00 0.00 0.00 46 1011.8
20260504210330 72 235 11.0 21.0 0.00 0.00 0.00 45 1011.5
20260504205734 72 248 9.0 11.0 0.00 0.00 0.00 44 1011.5
20260504205140 72 256 8.0 10.0 0.00 0.00 0.00 47 1011.5
20260504204542 74 256 9.0 12.0 0.00 0.00 0.00 43 1011.1
20260504203931 74 248 6.0 7.0 0.00 0.00 0.00 44 1011.1
20260504202734 73 231 4.0 8.0 0.00 0.00 0.00 46 1011.1
20260504202114 74 261 12.0 14.0 0.00 0.00 0.00 43 1011.5
20260504201541 73 242 12.0 16.0 0.00 0.00 0.00 44 1011.5
20260504200320 72 243 3.0 6.0 0.00 0.00 0.00 49 1011.5
20260504195752 72 220 2.0 3.0 0.00 0.00 0.00 54 1011.8
20260504195125 72 206 2.0 4.0 0.00 0.00 0.00 48 1012.1
20260504194552 70 236 2.0 3.0 0.00 0.00 0.00 51 1011.8
20260504193936 70 245 4.0 9.0 0.00 0.00 0.00 50 1011.8
20260504193337 70 233 6.0 12.0 0.00 0.00 0.00 49 1012.1
20260504192722 71 266 7.0 14.0 0.00 0.00 0.00 47 1012.1
20260504192139 72 269 12.0 15.0 0.00 0.00 0.00 46 1012.1
20260504191533 72 242 9.0 17.0 0.00 0.00 0.00 46 1012.1
20260504190949 71 245 5.0 9.0 0.00 0.00 0.00 52 1012.1
20260504185733 71 250 7.0 8.0 0.00 0.00 0.00 51 1012.1
20260504184535 71 252 9.0 12.0 0.00 0.00 0.00 49 1012.1
20260504183943 72 225 10.0 11.0 0.00 0.00 0.00 45 1012.1
20260504183329 73 266 6.0 14.0 0.00 0.00 0.00 48 1012.5
20260504182741 73 245 6.0 11.0 0.00 0.00 0.00 49 1012.5
20260504182142 72 241 4.0 10.0 0.00 0.00 0.00 47 1012.5
20260504181512 72 250 6.0 9.0 0.00 0.00 0.00 48 1012.5
20260504180923 71 224 8.0 10.0 0.00 0.00 0.00 49 1012.5
20260504180320 71 253 9.0 10.0 0.00 0.00 0.00 49 1012.5
20260504175748 72 174 6.0 12.0 0.00 0.00 0.00 52 1012.8
20260504174534 70 245 8.0 12.0 0.00 0.00 0.00 50 1012.8
20260504173931 70 250 6.0 15.0 0.00 0.00 0.00 51 1012.5
20260504172713 71 231 8.0 15.0 0.00 0.00 0.00 48 1013.2
20260504172134 69 247 8.0 15.0 0.00 0.00 0.00 51 1013.2
20260504171554 69 244 9.0 15.0 0.00 0.00 0.00 50 1013.2
20260504170919 69 230 6.0 10.0 0.00 0.00 0.00 49 1013.2
20260504170335 68 241 5.0 8.0 0.00 0.00 0.00 54 1013.5
20260504160347 65 225 10.0 14.0 0.00 0.00 0.00 53 1014.2
20260504141236 62 244 5.0 12.0 0.00 0.00 0.00 52 1014.9
20260504140653 62 258 12.0 12.0 0.00 0.00 0.00 51 1014.9
20260504130633 59 146 2.0 3.0 0.00 0.00 0.00 54 1014.9
20260504110627 42 91 1.0 1.0 0.00 0.00 0.00 96 1015.2
20260504081814 46 99 0.0 0.0 0.00 0.00 0.00 89 1016.2
20260504081216 46 99 0.0 0.0 0.00 0.00 0.00 89 1016.2
20260504080626 46 100 0.0 0.0 0.00 0.00 0.00 89 1016.5